sat.trackr.live / text

‹ back to catalog

STARLINK-4405

NORAD 53201 · 2022-084N

PAYLOAD ACTIVE UNKNOWN

§ Identity

Operator
Country
US
Launch date
2022-07-22
Launch site
AFWTR
Launch vehicle
Mass (kg)
RCS (m²)

Purposes: comms

External: N2YO · Heavens-Above · Gunter

§ Orbital elements

Epoch: 2026-05-25T06:00:02.000160Z

Period
94.60 min
Inclination
97.6003°
Eccentricity
0.0001744
Mean motion
15.22198148 rev/d
Perigee alt
498.0 km
Apogee alt
500.4 km
Semi-major
6,877.3 km
B*
5.8480e-5
RAAN
207.1645°
Arg perigee
62.9205°
Mean anomaly
212.1733°
Rev number
568

§ Raw data

STARLINK-44051 53201U 22084N   26145.25002315  .00001270  00000+0  58480-4 0  99912 53201  97.6003 207.1645 0001744  62.9205 212.1733 15.22198148  5682

JSON: /api/v1/satellites/53201 · /tle

For live sub-satellite position, see the globe view (requires WebGL).

§ Visibility from observer

Set your observer location to see the next 7 days of passes ≥ 10°. The values pass through the URL so the page stays shareable.

No JS? Fill the form by hand. The geolocation button needs JavaScript.